Location: Quebec
(46.8000°N, 71.2500°W)
Time: 13:07:33
(UTC-04:00)

ISS - Pass Details

Date: 12 October 2017
Orbit: 401 x 408 km, 51.6° (Epoch: 18 October)

Event Time Altitude Azimuth Distance (km) Brightness Sun altitude
Rises 19:34:01 0° 293° (WNW) 2,326 1.5 -16.4°
Reaches altitude 10° 19:36:09 10° 287° (WNW) 1,465 0.3 -16.7°
Maximum altitude 19:39:17 42° 215° (SW) 594 -2.8 -17.3°
Enters shadow 19:40:31 28° 164° (SSE) 797 -2.6 -17.5°
